Home > Weather > Grand Junction > Past weeks

Flag for USA Past Weather in Grand Junction, Colorado, USA — Yesterday and Last 2 Weeks

Now
92 °F

Sunny.


Feels Like: 88 °F
Forecast: 63 / 93 °F
Wind: 13 mph from Northwest

Location: Walker Field

Current Time: Jun 25, 2016 at 3:33:29 PM

Latest Report: Jun 25, 2016 at 2:53 PM


Visibility: 10 mi

Pressure: 29.81 "Hg (25.50 "Hg at 1398m altitude)

Humidity: 11%

Dew Point: 31 °F

Location of Grand JunctionLocation

Past Weather in Grand Junction — Graph

°F

Grand Junction Temperature Yesterday

Maximum temperature yesterday: 93 °F (at 2:53 PM)
Minimum temperature yesterday: 68 °F (at 3:53 AM)
Average temperature yesterday: 81 °F

High & Low Weather Summary for the Past Weeks

 TemperatureHumidityPressure
High102 °F (Jun 21, 3:53 PM)80% (Jun 14, 4:53 AM)30.12 "Hg (Jun 14, 4:53 AM)
Low50 °F (Jun 14, 4:53 AM)5% (Jun 15, 4:53 PM)29.63 "Hg (Jun 15, 5:53 PM)
Average78 °F24%29.84 "Hg
* Reported Jun 10 1:53 PM — Jun 25 1:53 PM, Grand Junction, Weather by CustomWeather, © 2016

Note: Actual official high and low records may vary slightly from our data, if they occured in-between our weather recording intervals... More about our weather records

Advertising

Grand Junction Weather History for the Previous 24 Hours

Scroll right to see more
 ConditionsComfort  
Time TempWeatherWind HumidityBarometerVisibility
1:53 PM
Sat, Jun 25
90 °FSunny.9 mph15%29.82 "Hg10 mi
12:53 PM88 °FSunny.9 mph19%29.83 "Hg10 mi
11:53 AM85 °FSunny.7 mph21%29.85 "Hg10 mi
10:53 AM84 °FSunny.10 mph20%29.86 "Hg10 mi
9:53 AM81 °FSunny.No wind25%29.87 "Hg10 mi
8:53 AM74 °FSunny.3 mph37%29.88 "Hg10 mi
7:53 AM71 °FSunny.No wind39%29.87 "Hg10 mi
6:53 AM68 °FSunny.3 mph40%29.84 "Hg10 mi
5:53 AM63 °FClear.3 mph47%29.82 "Hg10 mi
4:53 AM66 °FClear.6 mph43%29.79 "Hg10 mi
3:53 AM70 °FClear.12 mph38%29.76 "Hg10 mi
2:53 AM70 °FClear.14 mph38%29.75 "Hg10 mi
1:53 AM73 °FClear.16 mph34%29.74 "Hg10 mi
12:53 AM78 °FClear.17 mph27%29.72 "Hg10 mi
11:53 PM
Fri, Jun 24
78 °FClear.13 mph27%29.72 "Hg10 mi
10:53 PM78 °FClear.13 mph27%29.72 "Hg10 mi
9:53 PM80 °FClear.12 mph25%29.73 "Hg10 mi
8:53 PM83 °FSunny.17 mph22%29.70 "Hg10 mi
7:53 PM86 °FSunny.20 mph20%29.69 "Hg10 mi
6:53 PM89 °FSunny.22 mph18%29.70 "Hg10 mi
5:53 PM92 °FSunny.24 mph15%29.71 "Hg10 mi
4:53 PM93 °FSunny.22 mph13%29.73 "Hg10 mi
3:53 PM93 °FSunny.18 mph14%29.75 "Hg10 mi
Weather by CustomWeather, © 2016

See weather overviewHow to use our weather pages